Home   Weather   Salinas   Past weeks

Flag for USA Past Weather in Salinas, California, USA — Yesterday and Last 2 Weeks

Now
57 °F

Sunny.


Feels Like: 55 °F
Forecast: 48 / 55 °F
Wind: 9 mph from West

Location: Salinas Municipal Airport

Current Time: Jan 19, 2017 at 3:58:42 pm

Latest Report: Jan 19, 2017 at 2:53 pm


Visibility: 10 mi

Pressure: 29.87 "Hg

Humidity: 67%

Dew Point: 46 °F

Location of SalinasLocation

Past Weather in Salinas — Graph

°F

Salinas Temperature Yesterday

Maximum temperature yesterday: 53 °F (at 5:53 pm)
Minimum temperature yesterday: 45 °F (at 5:22 am)
Average temperature yesterday: 48 °F

High & Low Weather Summary for the Past Weeks

 TemperatureHumidityPressure
High63 °F (Jan 8, 10:53 am)97% (Jan 4, 6:22 pm)30.25 "Hg (Jan 4, 6:22 pm)
Low35 °F (Jan 6, 1:53 am)42% (Jan 15, 3:53 pm)29.80 "Hg (Jan 10, 9:05 pm)
Average50 °F82%30.04 "Hg
* Reported Jan 4 2:53 pm — Jan 19 2:53 pm, Salinas, Weather by CustomWeather, © 2017

Note: Actual official high and low records may vary slightly from our data, if they occured in-between our weather recording intervals... More about our weather records

Advertising

Salinas Weather History for the Previous 24 Hours

Scroll right to see more
 ConditionsComfort  
Time TempWeatherWind HumidityBarometerVisibility
2:53 pm
Thu, Jan 19
57 °FSunny.9 mph67%29.87 "Hg10 mi
1:53 pm56 °FPassing clouds.12 mph70%29.89 "Hg10 mi
1:00 pm54 °FCloudy.5 mph77%29.88 "Hg10 mi
12:32 pm53 °FMostly cloudy.6 mph77%29.90 "Hg2 mi
11:53 am54 °FOvercast.7 mph77%29.94 "Hg10 mi
11:42 am53 °FMostly cloudy.8 mph83%29.91 "Hg10 mi
11:35 am53 °FFog.8 mph86%29.92 "Hg2 mi
10:53 am52 °FMostly cloudy.13 mph86%29.96 "Hg9 mi
9:53 am51 °FMostly cloudy.10 mph86%29.96 "Hg10 mi
9:05 am49 °FCloudy.8 mph90%29.93 "Hg10 mi
8:53 am49 °FMostly cloudy.12 mph90%29.94 "Hg10 mi
7:53 am49 °FMostly cloudy.6 mph86%29.93 "Hg10 mi
6:53 am49 °FOvercast.9 mph86%29.91 "Hg10 mi
5:53 am47 °FOvercast.6 mph97%29.90 "Hg9 mi
4:53 am48 °FMostly cloudy.5 mph93%29.90 "Hg10 mi
4:20 am49 °FFog.3 mph90%29.88 "Hg3 mi
3:53 am46 °FMostly cloudy.6 mph93%29.89 "Hg10 mi
2:53 am45 °FPassing clouds.5 mph93%29.90 "Hg10 mi
1:53 am47 °FClear.5 mph93%29.90 "Hg10 mi
12:53 am49 °FPassing clouds.5 mph93%29.90 "Hg10 mi
11:53 pm
Wed, Jan 18
50 °FMostly cloudy.9 mph93%29.90 "Hg10 mi
11:44 pm50 °FPartly cloudy.13 mph89%29.88 "Hg10 mi
10:53 pm50 °FMostly cloudy.13 mph89%29.88 "Hg10 mi
9:53 pm50 °FMostly cloudy.26 mph89%29.87 "Hg10 mi
8:53 pm50 °FOvercast.23 mph89%29.86 "Hg8 mi
7:53 pm52 °FMostly cloudy.26 mph83%29.84 "Hg10 mi
6:53 pm52 °FMostly cloudy.37 mph83%29.80 "Hg10 mi
5:53 pm53 °FOvercast.32 mph80%29.81 "Hg10 mi
4:53 pm52 °FOvercast.30 mph83%29.85 "Hg10 mi
3:53 pm52 °FMostly cloudy.26 mph83%29.88 "Hg8 mi
Weather by CustomWeather, © 2017

See weather overviewHow to use our weather pages